Date,TemperatureHighF,TemperatureAvgF,TemperatureLowF,DewpointHighF,DewpointAvgF,DewpointLowF,HumidityHigh,HumidityAvg,HumidityLow,PressureMaxIn,PressureMinIn,WindSpeedMaxMPH,WindSpeedAvgMPH,GustSpeedMaxMPH,PrecipitationSumIn
2013-1-1,14.6,5.5,-4.0,10.7,0.9,-7.6,86,81,71,30.36,30.16,12,3,12,0.00
2013-1-2,24.0,11.9,1.4,22.0,9.0,-1.6,92,88,81,30.16,30.03,14,4,14,0.00
2013-1-3,14.3,11.0,8.5,10.5,7.2,4.0,90,84,79,30.35,30.25,16,6,16,0.00
2013-1-4,26.7,19.1,13.1,20.6,15.0,10.7,92,84,74,30.26,30.17,22,7,22,0.00
2013-1-5,28.8,19.3,11.3,24.3,16.0,8.7,93,87,81,30.18,29.92,16,5,21,0.00
2013-1-6,22.0,15.1,9.7,17.7,11.3,5.3,90,84,77,30.30,30.08,15,4,15,0.00
2013-1-7,34.8,27.3,21.2,28.6,23.0,17.1,95,84,76,30.18,29.99,28,8,28,0.00
2013-1-8,37.1,26.2,13.0,32.9,23.5,10.9,96,90,82,30.04,29.84,22,6,22,0.05
2013-1-9,39.4,30.5,22.7,31.1,26.7,20.8,93,86,66,30.41,30.04,17,5,21,0.00
2013-1-10,36.8,34.2,32.8,33.4,31.4,27.8,98,90,70,30.09,29.74,22,12,24,0.12
2013-1-11,42.8,37.1,33.5,42.8,36.9,32.9,100,99,98,29.74,29.44,19,6,19,0.01
2013-1-12,38.4,18.2,10.2,38.4,13.0,4.9,100,80,70,30.11,29.46,33,8,33,0.00
2013-1-13,11.8,7.6,3.4,6.6,2.5,-1.9,83,79,76,30.35,30.06,15,3,15,0.00
2013-1-14,23.9,14.1,5.5,15.1,9.1,2.2,87,80,68,30.49,30.35,11,3,14,0.00
2013-1-15,31.5,20.7,13.9,21.3,14.4,9.4,83,77,62,30.40,30.00,19,6,19,0.00
2013-1-16,41.3,28.8,18.5,35.2,24.5,13.8,92,84,76,30.23,29.81,23,8,25,0.00
2013-1-17,29.8,18.7,8.2,21.7,12.5,2.2,89,77,60,30.45,30.23,15,2,15,0.00
2013-1-18,46.3,35.1,23.9,35.6,29.4,21.1,91,80,64,30.34,29.81,29,11,30,0.00
2013-1-19,43.9,31.1,7.2,35.1,25.0,-0.0,90,78,68,30.24,29.75,27,7,29,0.00
2013-1-20,11.4,6.8,3.0,6.8,1.5,-2.3,86,78,73,30.43,30.24,17,4,18,0.00
2013-1-21,5.3,-1.1,-8.9,-2.1,-7.8,-15.6,81,72,63,30.45,30.35,16,4,16,0.00
2013-1-22,10.7,3.3,-3.6,6.6,-3.2,-9.0,83,74,64,30.49,30.33,10,2,10,0.00
2013-1-23,21.0,12.3,0.4,14.1,5.6,-6.8,84,74,54,30.60,30.21,21,5,21,0.00
2013-1-24,16.7,5.0,-1.8,5.4,-5.4,-11.1,71,62,49,30.69,30.27,24,6,24,0.00
2013-1-25,26.5,15.4,4.9,18.5,7.3,-0.3,81,70,50,30.34,30.08,23,6,23,0.00
2013-1-26,26.7,5.4,1.1,14.0,0.4,-2.8,85,79,58,30.40,30.22,16,3,21,0.00
2013-1-27,32.2,30.9,24.0,31.7,29.2,14.9,98,94,63,30.19,29.78,23,4,25,0.01
2013-1-28,36.2,31.7,29.1,36.2,31.3,28.4,100,98,97,29.92,29.57,17,1,17,0.00
2013-1-29,37.9,33.1,29.5,37.9,32.6,26.8,100,98,90,29.67,29.53,23,4,23,0.03
2013-1-30,29.4,18.6,7.9,26.8,15.2,3.6,95,86,80,29.83,29.54,26,7,26,0.00
2013-1-31,7.8,0.1,-6.1,3.6,-5.1,-11.7,84,78,71,30.40,29.83,21,6,21,0.00
2013-2-1,12.8,1.8,-8.4,9.7,-3.6,-13.4,87,78,67,30.43,30.09,20,5,20,0.00
2013-2-2,24.8,14.9,5.8,22.6,10.7,2.3,94,83,69,30.21,29.99,17,4,18,0.00
2013-2-3,23.4,18.6,9.9,20.5,13.8,5.6,89,81,74,30.16,29.85,18,5,18,0.00
2013-2-4,22.2,17.7,12.9,17.4,12.8,9.5,90,81,68,30.08,29.86,12,3,12,0.00
2013-2-5,36.0,21.8,14.3,30.0,18.4,11.2,94,87,76,30.14,29.77,17,3,22,0.00
2013-2-6,37.1,26.8,11.8,33.7,24.0,9.8,95,89,82,30.14,29.90,24,6,28,0.01
2013-2-7,34.3,28.4,23.4,33.0,27.3,21.0,98,95,89,30.22,29.93,17,4,18,0.00
2013-2-8,28.0,25.5,22.5,24.0,22.2,20.0,91,87,82,30.38,30.22,20,5,20,0.00
2013-2-9,31.2,28.3,25.6,29.2,26.3,23.4,95,92,89,30.27,29.89,28,15,28,0.00
2013-2-10,38.5,33.2,28.4,38.5,32.7,27.6,100,98,94,29.89,29.25,27,11,27,0.04
2013-2-11,28.4,24.6,20.9,27.7,21.3,16.5,97,87,80,30.11,29.41,31,9,31,0.00
2013-2-12,37.8,28.2,20.0,31.5,24.1,16.7,91,85,69,30.13,29.86,19,5,20,0.00
2013-2-13,43.3,33.3,24.5,36.8,29.4,22.0,92,86,75,29.86,29.61,16,5,16,0.00
2013-2-14,36.1,29.9,18.2,32.7,25.4,12.3,93,83,68,30.18,29.62,22,5,22,0.00
2013-2-15,22.6,16.0,11.0,13.6,9.5,5.9,85,75,63,30.34,30.18,16,3,16,0.00
2013-2-16,22.8,15.3,11.9,19.0,11.8,8.5,88,85,80,30.32,30.13,11,2,11,0.00
2013-2-17,35.2,25.8,15.9,28.8,21.3,13.5,91,83,74,30.14,29.66,33,14,33,0.00
2013-2-18,35.7,24.1,6.2,32.2,19.7,1.1,90,83,75,29.87,29.57,27,6,32,0.00
2013-2-19,11.3,3.3,-2.2,3.0,-2.7,-7.4,82,76,67,30.44,29.87,24,7,24,0.00
2013-2-20,22.4,8.8,-3.6,11.5,1.8,-8.2,83,74,55,30.52,30.40,11,2,11,0.00
2013-2-21,23.5,17.3,10.5,17.0,11.9,6.5,92,79,67,30.44,29.97,19,5,19,0.00
2013-2-22,30.1,22.3,14.8,27.0,19.5,12.4,94,89,78,29.97,29.86,12,3,12,0.08
2013-2-23,23.2,13.6,7.3,17.6,11.2,4.8,93,90,78,30.00,29.93,11,2,11,0.00
2013-2-24,26.9,18.3,2.4,23.2,15.2,-0.6,93,88,82,30.15,30.00,9,2,9,0.00
2013-2-25,35.9,28.5,23.2,29.0,25.0,20.9,96,87,74,30.14,29.99,7,1,7,0.03
2013-2-26,33.2,28.6,23.4,27.8,25.0,22.0,96,87,79,29.99,29.80,19,4,20,0.00
2013-2-27,33.1,28.5,22.3,27.6,24.7,19.6,89,85,79,29.99,29.80,20,6,20,0.00
2013-2-28,29.7,25.8,21.2,24.8,22.1,18.5,90,86,77,30.19,29.99,15,4,15,0.00
2013-3-1,26.8,23.5,15.2,21.4,18.1,12.3,88,80,67,30.35,30.18,12,3,12,0.00
2013-3-2,30.7,19.1,8.7,19.8,13.8,6.4,91,80,61,30.36,30.19,8,1,8,0.00
2013-3-3,28.4,23.6,18.1,22.7,18.3,13.4,92,80,58,30.20,29.98,24,10,24,0.00
2013-3-4,28.5,25.5,22.5,25.6,23.2,20.3,94,91,86,30.02,29.88,30,14,30,0.00
2013-3-5,32.0,26.7,24.2,27.1,23.9,20.9,96,89,79,30.29,29.95,21,4,21,0.05
2013-3-6,26.5,21.0,12.2,21.7,17.4,9.8,94,86,76,30.43,30.28,13,2,13,0.00
2013-3-7,25.0,15.6,2.9,20.7,12.6,-0.1,94,88,82,30.41,30.33,20,6,22,0.00
2013-3-8,34.8,26.5,14.0,32.2,24.0,11.9,95,90,85,30.36,30.09,25,12,27,0.05
2013-3-9,35.6,34.3,33.5,35.3,33.9,32.2,99,98,94,30.09,29.68,26,12,26,0.68
2013-3-10,34.4,32.7,29.9,34.4,32.5,29.6,100,99,97,29.84,29.68,24,7,24,0.17
2013-3-11,29.9,26.3,22.2,29.6,24.1,18.2,99,92,80,29.91,29.73,19,5,19,0.02
2013-3-12,29.1,24.4,19.4,26.7,20.2,15.5,92,84,73,30.22,29.90,20,6,20,0.00
2013-3-13,28.4,19.6,13.2,21.4,15.6,10.8,91,84,71,30.45,30.22,11,3,12,0.00
2013-3-14,40.8,29.5,15.8,32.8,25.5,13.3,94,85,71,30.33,30.05,21,5,21,0.07
2013-3-15,39.2,34.5,29.1,34.7,31.9,26.7,98,90,83,30.06,29.74,16,4,17,0.00
2013-3-16,33.2,26.7,18.8,32.7,22.6,13.9,98,85,72,30.23,29.81,19,6,21,0.00
2013-3-17,30.9,22.6,12.7,26.8,17.7,8.1,88,81,74,30.24,29.90,24,10,25,0.00
2013-3-18,31.5,23.5,13.3,30.6,19.9,7.9,97,86,73,29.93,29.67,24,11,28,0.00
2013-3-19,26.6,16.4,9.3,17.1,8.9,4.2,82,72,57,30.29,29.93,20,6,20,0.00
2013-3-20,21.5,14.5,8.1,10.0,5.9,2.5,80,69,54,30.32,30.18,17,5,17,0.00
2013-3-21,29.3,16.2,5.9,13.9,8.0,2.2,86,71,48,30.18,30.07,11,1,12,0.00
2013-3-22,33.2,22.3,11.8,19.1,14.2,8.0,87,71,52,30.13,30.07,8,1,8,0.00
2013-3-23,35.7,28.2,19.4,24.2,19.7,15.3,86,71,51,30.18,30.08,11,2,11,0.00
2013-3-24,32.2,27.9,25.0,27.5,24.6,22.2,93,87,78,30.10,29.93,14,4,16,0.00
2013-3-25,34.4,29.2,24.7,25.3,22.3,18.9,88,75,60,30.25,29.99,18,6,18,0.00
2013-3-26,38.5,28.2,19.5,28.1,22.1,17.0,90,78,49,30.33,30.25,10,2,10,0.00
2013-3-27,39.7,31.6,24.7,28.4,25.2,22.0,91,78,59,30.36,30.30,9,1,9,0.00
2013-3-28,44.2,35.0,28.6,37.4,28.9,20.7,88,78,70,30.35,30.26,12,4,12,0.00
2013-3-29,52.9,40.1,31.2,43.4,34.6,26.8,89,81,66,30.29,30.10,15,5,15,0.00
2013-3-30,53.9,44.1,37.3,49.3,40.2,33.5,96,86,71,30.10,29.85,20,5,20,0.00
2013-3-31,40.1,34.6,26.0,38.0,29.0,19.8,98,81,55,30.10,29.84,20,5,20,0.00
2013-4-1,33.8,26.7,19.6,21.3,17.9,14.2,81,70,52,30.30,30.09,18,4,18,0.00
2013-4-2,37.8,29.6,22.5,24.8,21.1,19.4,90,72,51,30.37,30.29,14,2,18,0.00
2013-4-3,44.9,34.3,24.1,32.5,25.3,19.2,89,70,52,30.43,30.20,21,6,21,0.00
2013-4-4,53.4,41.8,34.7,37.5,31.2,26.0,80,67,46,30.20,30.05,20,6,20,0.00
2013-4-5,48.7,39.2,30.6,34.8,30.1,25.9,87,71,54,30.21,29.85,25,9,25,0.00
2013-4-6,58.9,45.5,39.1,49.3,39.1,31.5,93,79,64,29.85,29.51,27,11,28,0.10
2013-4-7,53.9,42.2,33.2,45.5,38.1,32.0,96,86,71,29.94,29.68,18,6,18,0.00
2013-4-8,64.6,52.0,44.2,55.4,48.2,42.0,99,88,69,29.88,29.60,18,4,18,0.31
2013-4-9,44.1,39.4,36.5,41.9,38.2,35.7,98,95,92,30.04,29.73,20,6,22,1.84
2013-4-10,36.6,34.0,32.5,35.8,32.7,30.4,97,95,92,30.08,29.77,22,6,25,0.46
2013-4-11,39.9,35.5,32.6,39.0,34.8,32.1,98,97,95,29.78,29.55,16,3,17,0.83
2013-4-12,33.3,31.7,29.5,32.2,28.9,26.8,98,89,80,29.89,29.57,17,4,17,0.02
2013-4-13,42.4,34.4,28.8,33.2,28.4,24.6,88,79,64,29.97,29.88,17,4,17,0.01
2013-4-14,52.9,39.3,32.9,52.9,37.0,30.8,100,91,79,29.88,29.41,28,9,28,1.55
2013-4-15,43.4,37.9,33.8,38.9,30.8,26.9,84,76,65,30.02,29.60,29,8,29,0.00
2013-4-16,48.8,39.4,31.7,34.6,31.1,27.3,88,73,50,30.28,30.02,19,3,19,0.00
2013-4-17,39.5,38.1,36.2,38.3,35.1,31.5,98,89,78,30.25,29.71,21,5,21,0.94
2013-4-18,37.7,34.4,31.8,36.5,33.3,29.8,97,95,92,29.77,29.49,21,6,21,0.35
2013-4-19,35.1,31.8,29.0,30.0,27.6,25.5,93,84,71,30.03,29.56,23,6,23,0.00
2013-4-20,43.8,34.9,25.0,30.2,23.5,16.0,90,66,36,30.29,30.04,13,4,13,0.00
2013-4-21,61.0,47.3,36.6,50.4,40.8,28.7,91,79,58,30.29,30.02,38,12,38,0.25
2013-4-22,49.7,41.6,32.9,49.4,40.6,31.6,99,96,91,30.14,29.92,21,4,22,0.46
2013-4-23,39.4,33.6,29.3,31.6,28.3,25.1,95,82,60,30.15,30.04,21,6,21,0.00
2013-4-24,51.2,37.6,26.6,38.0,29.6,23.8,90,75,39,30.12,29.94,35,7,35,0.01
2013-4-25,56.1,41.5,29.7,36.2,28.3,20.3,85,61,38,30.25,30.06,19,6,19,0.00
2013-4-26,72.3,56.6,38.8,49.4,42.0,34.3,86,61,31,30.12,30.02,29,10,29,0.00
2013-4-27,69.0,56.7,43.6,51.7,47.1,42.3,96,73,44,30.12,29.93,17,7,17,0.00
2013-4-28,51.4,48.9,46.4,45.8,44.5,43.0,89,85,81,29.93,29.88,15,7,15,0.00
2013-4-29,74.1,68.8,63.7,59.7,57.8,56.1,79,68,55,29.68,29.49,19,7,19,0.32
2013-4-30,73.3,64.8,51.4,60.3,53.3,45.4,92,69,41,29.88,29.44,27,7,27,0.74
2013-5-1,51.7,41.8,33.3,48.9,38.6,32.5,97,89,76,30.40,29.86,24,8,24,0.34
2013-5-2,38.1,34.4,32.6,34.5,32.0,30.5,98,91,76,30.47,30.36,24,5,24,0.44
2013-5-3,34.0,32.5,31.3,31.9,31.0,30.1,97,94,88,30.38,30.06,22,7,22,0.20
2013-5-4,44.8,38.2,32.7,40.6,35.8,31.4,97,91,80,30.12,30.00,18,5,18,0.07
2013-5-5,58.8,50.1,39.2,53.0,46.3,37.6,94,87,79,30.13,30.05,13,4,13,0.00
2013-5-6,71.5,57.8,43.7,55.7,48.3,42.6,96,74,44,30.08,29.98,12,2,12,0.01
2013-5-7,75.2,64.5,52.9,54.9,49.9,47.3,86,61,39,30.03,29.92,9,1,9,0.00
2013-5-8,75.0,63.8,53.8,57.0,51.5,46.3,95,66,40,29.95,29.88,20,4,20,0.08
2013-5-9,60.1,55.5,46.9,58.2,54.0,45.7,98,95,90,29.94,29.83,21,3,22,0.20
2013-5-10,65.0,52.6,43.2,52.1,44.3,37.0,97,76,38,30.03,29.92,20,3,20,0.00
2013-5-11,55.4,49.0,42.9,44.5,30.9,17.7,79,52,26,30.15,29.89,29,7,29,0.00
2013-5-12,58.9,47.6,35.6,30.7,25.4,19.0,68,44,22,30.22,30.08,14,3,15,0.00
2013-5-13,75.1,58.5,41.4,48.7,36.1,22.3,57,44,27,30.11,29.71,30,8,30,0.00
2013-5-14,100.1,78.4,56.9,58.1,48.1,35.9,78,41,15,29.71,29.43,42,9,42,0.00
2013-5-15,76.7,67.9,56.9,49.7,45.4,35.4,67,46,26,29.86,29.62,18,3,18,0.00
2013-5-16,83.7,70.8,54.2,62.8,47.8,35.2,93,49,18,29.88,29.74,21,4,21,0.28
2013-5-17,72.8,64.1,56.7,65.5,60.8,54.1,96,89,74,29.90,29.76,21,4,21,0.56
2013-5-18,82.3,69.1,56.8,66.0,60.9,54.6,94,77,49,29.92,29.73,23,7,23,0.00
2013-5-19,79.3,69.0,62.7,70.0,64.7,61.1,99,87,63,29.76,29.46,47,10,47,1.61
2013-5-20,73.0,64.8,59.2,62.4,59.8,56.2,99,85,61,29.58,29.46,24,9,24,0.19
2013-5-21,62.9,60.0,57.4,58.6,54.1,50.5,95,81,66,29.62,29.46,20,5,20,0.00
2013-5-22,59.8,55.6,51.4,55.8,52.8,50.0,97,90,81,29.85,29.58,14,2,14,0.16
2013-5-23,64.3,55.7,49.5,51.9,45.2,37.0,95,70,40,30.27,29.85,19,2,19,0.00
2013-5-24,67.9,56.2,43.5,50.8,43.4,36.0,82,63,41,30.34,30.15,26,8,26,0.10
2013-5-25,55.4,51.7,49.9,50.1,48.8,47.5,98,90,78,30.23,30.11,33,14,33,0.41
2013-5-26,53.3,50.3,46.4,52.8,49.2,45.6,99,96,90,30.17,29.95,43,11,43,1.23
2013-5-27,60.1,56.5,53.1,60.0,56.5,52.8,100,100,99,30.00,29.73,27,7,27,0.64
2013-5-28,73.1,61.7,55.9,69.5,60.6,55.9,100,96,81,29.73,29.62,16,2,16,0.12
2013-5-29,74.5,65.2,59.8,68.3,63.5,59.8,100,95,78,29.75,29.55,22,7,22,0.17
2013-5-30,71.2,67.3,63.1,65.9,63.2,60.4,98,87,77,29.63,29.46,28,10,28,0.01
2013-5-31,77.4,67.9,59.9,64.1,58.8,48.2,96,75,37,29.58,29.49,30,10,30,0.00
2013-6-1,69.3,60.8,53.7,59.9,54.9,47.6,93,81,68,29.86,29.51,18,3,18,0.00
2013-6-2,65.4,56.0,48.4,48.5,44.3,41.0,89,66,43,30.03,29.86,20,2,20,0.00
2013-6-3,69.6,61.0,48.7,50.5,45.9,41.5,85,59,41,30.05,29.90,21,5,21,0.00
2013-6-4,61.9,56.7,52.9,55.1,52.6,50.4,99,87,66,30.03,29.93,27,10,27,0.95
2013-6-5,69.6,59.3,53.4,59.8,54.8,51.2,99,86,62,30.00,29.88,12,1,12,0.06
2013-6-6,61.6,57.7,54.2,55.4,53.0,50.4,96,85,73,29.96,29.86,13,2,13,0.00
2013-6-7,68.5,59.2,51.3,56.7,52.4,50.1,98,79,58,29.99,29.88,9,1,9,0.00
2013-6-8,66.7,60.8,53.9,59.0,54.5,51.0,92,80,64,29.89,29.78,16,4,16,0.16
2013-6-9,71.5,63.9,60.5,64.8,60.2,56.4,96,88,71,29.78,29.64,23,9,24,0.37
2013-6-10,76.2,66.5,58.1,64.5,61.2,57.5,99,84,62,29.83,29.72,11,1,11,0.01
2013-6-11,85.6,74.0,61.8,68.8,64.9,60.7,97,75,49,29.83,29.68,24,4,24,0.00
2013-6-12,82.7,71.9,63.9,75.2,68.2,59.6,97,88,73,29.82,29.58,24,4,24,1.07
2013-6-13,79.3,68.7,59.5,62.0,57.1,53.9,86,68,46,30.01,29.82,16,2,16,0.00
2013-6-14,74.0,67.5,62.0,62.8,59.9,56.3,92,77,63,30.02,29.82,26,9,26,0.15
2013-6-15,77.5,68.6,63.2,69.8,65.3,61.4,99,90,71,29.91,29.77,32,4,32,0.76
2013-6-16,84.3,73.6,61.8,65.5,58.4,49.6,98,64,32,29.91,29.82,9,1,9,0.01
2013-6-17,84.2,73.4,61.6,62.4,56.2,48.4,78,57,31,29.90,29.82,15,1,15,0.00
2013-6-18,78.4,69.7,61.5,63.0,58.2,55.7,88,68,48,29.99,29.88,15,1,15,0.00
2013-6-19,82.0,71.8,60.9,63.8,59.3,56.2,87,66,43,30.02,29.89,19,8,19,0.00
2013-6-20,87.4,77.5,65.2,66.2,63.3,60.2,86,64,44,29.96,29.82,30,10,30,0.00
2013-6-21,84.7,75.1,63.4,73.8,67.9,60.3,96,79,66,29.92,29.74,28,9,28,0.76
2013-6-22,90.5,75.7,64.2,73.6,67.8,62.3,99,80,43,29.95,29.72,28,7,28,0.95
2013-6-23,80.2,73.7,67.8,71.6,68.2,63.5,99,84,64,29.85,29.64,26,7,29,0.37
2013-6-24,74.4,69.5,65.8,71.1,67.2,62.6,98,92,82,29.89,29.74,24,5,26,0.40
2013-6-25,86.3,75.1,65.8,74.4,69.6,65.1,98,84,53,29.76,29.64,18,5,18,0.00
2013-6-26,85.8,75.8,70.8,76.7,72.8,70.3,99,91,68,29.66,29.59,11,3,11,0.01
2013-6-28,77.2,73.3,67.1,62.0,60.7,58.5,83,65,53,29.73,29.69,16,4,18,0.00
2013-6-29,72.1,66.2,62.5,62.5,59.8,55.9,95,81,58,29.88,29.68,18,2,18,0.08
2013-6-30,76.9,66.7,55.5,57.3,51.6,45.5,84,61,34,30.05,29.88,13,1,13,0.00
2013-7-1,81.4,71.5,62.0,58.9,54.5,50.4,75,57,38,30.10,30.05,12,1,12,0.00
2013-7-2,82.1,72.3,62.6,61.7,53.1,42.1,87,54,27,30.07,29.97,16,1,16,0.00
2013-7-3,80.5,70.4,60.2,59.8,55.6,50.6,85,62,37,30.02,29.90,13,4,13,0.00
2013-7-4,85.2,74.1,61.8,61.0,57.7,53.3,87,59,36,29.94,29.85,19,5,19,0.00
2013-7-5,87.0,75.7,63.0,63.9,60.2,57.0,82,61,38,29.89,29.81,19,7,23,0.00
2013-7-6,90.2,79.2,67.1,66.2,62.8,56.2,81,59,32,29.86,29.76,24,8,24,0.00
2013-7-7,91.1,80.4,70.4,69.9,66.9,63.9,83,65,47,29.84,29.75,17,5,17,0.00
2013-7-8,91.3,79.5,69.9,74.9,69.7,63.4,97,74,41,29.89,29.80,12,1,13,0.05
2013-7-9,89.7,80.1,73.0,74.9,71.5,68.5,95,76,54,29.87,29.76,16,3,16,0.25
2013-7-10,80.2,72.2,64.2,69.3,59.8,53.7,90,67,45,30.01,29.85,11,2,16,0.00
2013-7-11,82.4,72.0,60.6,60.0,56.9,51.6,90,62,35,30.07,29.96,20,5,20,0.00
2013-7-12,84.3,73.2,61.2,63.0,59.9,57.4,88,65,42,30.01,29.90,25,10,25,0.00
2013-7-13,73.5,67.6,61.3,64.9,59.7,55.3,94,77,65,30.08,29.92,21,8,21,0.52
2013-7-14,83.7,73.3,62.8,68.0,64.3,61.3,96,75,50,30.13,30.01,19,6,19,0.00
2013-7-15,86.6,76.4,65.5,72.1,67.5,62.5,91,75,56,30.18,30.09,15,4,16,0.00
2013-7-16,90.8,81.4,72.7,72.6,70.4,65.8,93,71,45,30.17,30.12,15,3,15,0.00
2013-7-17,92.0,81.1,72.6,74.6,71.2,67.1,91,74,47,30.21,30.07,20,1,20,0.04
2013-7-18,91.3,82.3,72.4,72.5,69.5,67.0,89,67,46,30.08,29.79,21,6,21,0.00
2013-7-19,87.6,79.8,69.0,73.6,66.8,60.9,79,65,45,29.84,29.72,16,4,16,0.00
2013-7-20,84.3,73.9,61.9,66.5,62.7,58.6,93,70,47,29.89,29.81,9,1,9,0.00
2013-7-21,83.7,73.5,66.7,68.9,64.4,60.4,91,74,49,29.86,29.73,16,3,16,0.00
2013-7-22,91.3,72.7,62.9,73.7,66.6,61.6,99,83,49,29.78,29.60,21,4,21,0.24
2013-7-23,75.3,67.6,60.7,61.9,56.9,52.6,90,70,49,29.97,29.76,11,2,13,0.00
2013-7-24,76.0,66.4,55.5,60.5,56.6,53.4,94,72,50,30.04,29.94,13,1,13,0.00
2013-7-25,84.5,69.1,60.1,66.7,61.9,57.4,99,80,47,29.98,29.85,19,6,21,1.96
2013-7-26,70.5,65.6,59.6,64.2,57.0,52.7,99,75,60,30.01,29.87,15,3,18,0.00
2013-7-27,66.8,58.3,50.4,53.6,49.7,44.6,94,74,50,30.03,29.91,14,2,14,0.00
2013-7-28,69.0,58.2,50.6,54.2,49.6,46.2,87,74,53,29.99,29.91,12,1,12,0.00
2013-7-30,72.5,68.0,62.1,65.4,63.1,58.5,93,84,76,30.04,30.00,10,3,11,0.00
2013-7-31,79.8,69.7,61.9,68.0,63.5,59.4,98,82,56,30.04,29.95,10,1,10,0.00
2013-8-1,82.5,69.4,61.2,69.6,60.2,47.4,99,75,40,30.01,29.82,14,2,14,0.83
2013-8-2,75.8,68.4,63.7,65.2,61.1,57.1,98,79,55,29.98,29.81,9,1,9,0.00
2013-8-3,77.2,67.9,56.8,59.8,56.0,52.8,92,68,44,30.14,29.98,9,1,9,0.00
2013-8-4,75.7,66.9,56.6,60.7,57.1,53.3,91,72,53,30.17,29.97,15,3,15,0.00
2013-8-5,81.4,68.4,61.1,72.6,64.9,58.7,97,89,70,29.99,29.76,13,3,19,0.75
2013-8-6,84.0,74.0,62.9,71.5,67.5,62.6,100,82,57,29.81,29.68,15,3,15,0.01
2013-8-7,75.3,68.5,61.6,68.0,61.4,55.1,95,79,61,29.98,29.73,15,2,15,0.00
2013-8-8,78.0,66.5,55.8,62.5,57.8,53.2,91,75,51,30.01,29.93,13,1,13,0.00
2013-8-9,76.3,69.3,63.8,62.9,59.6,54.8,93,73,51,30.08,29.94,7,2,12,0.00
2013-8-10,79.7,68.2,56.7,65.0,58.3,52.6,93,72,52,30.15,30.03,8,0,8,0.00
2013-8-11,72.3,67.0,64.2,67.3,64.0,62.1,97,90,79,30.05,29.94,18,2,18,0.47
2013-8-12,77.3,69.4,62.7,65.6,61.1,56.6,99,77,53,30.01,29.94,13,1,13,0.01
2013-8-13,74.2,65.2,56.7,58.3,54.4,49.6,94,70,47,30.14,30.00,9,0,9,0.00
2013-8-14,74.3,63.5,52.9,55.5,50.5,46.6,85,65,38,30.18,30.08,12,1,12,0.00
2013-8-15,73.7,64.4,54.3,59.5,54.7,49.9,92,72,53,30.11,30.04,12,2,12,0.00
2013-8-16,76.6,66.3,55.3,59.8,55.5,51.2,97,71,42,30.17,30.10,12,2,12,0.00
2013-8-17,78.5,68.7,58.6,60.5,56.6,53.2,87,67,43,30.17,30.07,16,3,16,0.00
2013-8-18,79.4,68.7,55.9,61.6,58.2,53.8,94,71,47,30.12,30.00,14,3,14,0.00
2013-8-19,81.7,70.8,59.9,68.8,63.1,57.0,91,78,62,30.02,29.89,16,5,17,0.00
2013-8-20,86.3,76.0,65.1,72.5,68.0,62.5,92,77,60,29.91,29.82,20,6,20,0.00
2013-8-21,84.1,76.4,69.0,74.3,69.7,65.7,90,80,68,29.91,29.84,21,4,21,0.00
2013-8-23,79.8,75.2,69.4,71.3,69.3,67.1,93,82,73,30.03,29.99,17,8,17,0.01
2013-8-24,82.8,75.0,66.5,75.2,70.2,65.0,95,85,75,30.07,29.96,20,8,20,0.00
2013-8-25,89.6,79.7,71.3,76.4,71.6,67.9,90,77,62,30.04,29.94,22,7,22,0.00
2013-8-26,92.2,81.7,72.9,77.4,72.9,69.2,89,76,58,29.98,29.82,17,5,17,0.00
2013-8-27,91.1,82.2,74.8,77.1,72.8,68.9,93,74,58,29.84,29.75,18,6,18,0.00
2013-8-28,90.3,81.5,73.3,80.7,76.9,72.7,99,87,69,29.92,29.81,13,3,13,0.00
2013-8-29,89.8,80.7,72.9,75.6,73.5,70.1,99,80,56,29.94,29.81,17,4,17,0.00
2013-8-30,90.0,79.3,69.9,76.8,72.0,66.5,92,79,59,29.82,29.75,12,2,12,0.00
2013-8-31,83.5,73.8,64.5,72.0,68.3,63.2,97,84,63,29.79,29.70,16,2,16,0.00
2013-9-1,76.3,71.3,63.8,70.3,64.1,59.2,94,79,61,29.90,29.67,16,2,16,0.00
2013-9-2,72.0,61.8,52.2,59.6,55.0,50.5,97,80,55,30.02,29.89,13,2,13,0.00
2013-9-3,78.0,62.2,49.2,59.9,54.4,48.4,98,78,48,30.08,29.98,7,1,7,0.00
2013-9-4,87.5,73.7,61.0,70.1,62.7,55.4,88,70,45,30.08,30.00,13,2,13,0.00
2013-9-5,87.5,75.4,65.5,72.4,67.4,63.3,94,78,46,30.12,30.05,11,2,11,0.00
2013-9-6,86.9,74.9,65.1,69.0,65.6,60.7,99,76,48,30.06,29.84,20,5,20,0.00
2013-9-7,72.9,70.4,68.5,65.6,63.0,61.1,86,77,67,29.86,29.82,8,2,8,0.00
2013-9-8,74.5,70.9,67.5,68.4,67.0,65.5,96,88,81,29.93,29.81,19,7,19,0.00
2013-9-9,95.9,79.3,67.5,74.0,67.3,61.9,100,72,33,29.81,29.65,23,7,23,0.00
2013-9-10,87.0,76.5,69.2,71.2,65.3,62.7,84,69,51,29.93,29.73,13,2,14,0.00
2013-9-11,83.5,72.8,66.4,68.8,63.3,58.6,90,74,45,30.01,29.92,11,2,11,0.00
2013-9-12,73.8,65.7,57.3,60.0,51.6,46.7,82,62,42,30.15,29.98,18,2,18,0.00
2013-9-13,70.8,58.2,46.8,48.8,45.6,41.8,92,65,36,30.23,30.07,10,1,10,0.00
2013-9-14,73.5,60.2,46.9,53.8,46.4,41.8,88,63,37,30.08,29.82,18,5,18,0.26
2013-9-15,63.9,59.1,54.5,57.2,55.0,52.5,97,87,72,30.23,29.79,15,2,15,0.40
2013-9-16,66.0,55.1,45.2,56.0,50.4,44.4,98,85,62,30.35,30.22,12,2,12,0.00
2013-9-17,60.9,54.0,48.9,60.8,52.8,46.2,100,96,89,30.24,29.94,20,8,20,0.05
2013-9-18,85.3,71.3,60.9,72.4,67.3,60.9,100,89,63,29.95,29.67,16,8,26,0.65
2013-9-19,80.5,72.8,64.9,70.1,67.4,59.9,96,84,63,29.77,29.63,22,4,22,0.09
2013-9-20,64.8,57.4,51.0,59.9,51.6,46.0,91,81,67,29.92,29.76,17,2,17,0.00
2013-9-21,69.2,56.4,46.9,51.9,47.8,44.3,92,74,47,29.98,29.87,5,1,9,0.00
2013-9-22,74.6,60.0,48.5,56.1,51.1,45.4,91,75,49,29.94,29.83,21,7,21,0.00
2013-9-23,73.5,59.8,48.5,55.3,50.9,46.6,94,75,45,29.93,29.82,27,10,27,0.00
2013-9-24,72.7,60.5,49.5,57.0,51.9,46.7,91,75,49,29.90,29.85,23,5,23,0.00
2013-9-25,73.5,61.6,49.9,56.1,52.9,48.2,95,75,52,29.93,29.81,18,5,18,0.00
2013-9-26,81.3,68.4,53.6,63.0,58.4,50.8,91,72,49,29.90,29.80,27,11,27,0.00
2013-9-27,84.1,70.7,60.9,64.6,60.9,58.6,93,74,44,29.90,29.78,29,12,29,0.00
2013-9-28,52.7,49.9,47.8,47.0,45.7,44.0,88,85,81,29.96,29.93,2,0,2,0.06
2013-9-29,75.0,59.2,45.6,49.6,44.7,41.0,87,62,31,30.00,29.85,22,5,22,0.00
2013-9-30,76.7,63.2,52.4,53.4,49.8,46.8,86,64,37,29.86,29.64,31,8,31,0.00
2013-10-1,78.5,66.3,56.4,55.9,48.2,36.9,78,55,26,29.94,29.67,17,4,17,0.00
2013-10-2,79.9,65.4,52.8,61.6,46.8,36.7,86,54,27,30.01,29.80,20,6,25,0.00
2013-10-3,78.8,66.0,59.5,68.3,61.6,57.4,99,87,49,29.80,29.69,13,3,17,0.64
2013-10-4,70.5,63.6,59.3,69.0,62.2,58.7,100,96,79,29.85,29.66,30,3,30,0.59
2013-10-5,68.9,53.9,46.2,68.6,45.6,37.6,99,75,52,29.83,29.70,16,5,16,0.02
2013-10-6,50.2,47.0,43.5,48.4,42.7,37.9,97,85,71,29.86,29.68,11,2,11,0.02
2013-10-7,73.0,54.8,42.9,51.3,45.8,39.6,95,74,44,29.98,29.85,11,2,11,0.00
2013-10-8,76.0,67.7,48.6,48.2,46.0,42.7,82,48,33,29.98,29.88,28,10,28,0.00
2013-10-9,74.5,61.9,46.7,52.7,48.3,44.7,94,64,37,30.05,29.98,25,7,25,0.00
2013-10-10,75.7,66.4,44.8,53.2,49.5,42.3,92,57,36,30.02,29.88,26,9,26,0.00
2013-10-11,71.9,67.8,51.8,62.3,58.8,50.1,95,74,62,29.83,29.64,37,14,37,0.00
2013-10-12,63.2,56.1,46.6,43.0,37.3,31.8,84,51,33,30.17,29.89,26,5,26,0.00
2013-10-13,62.2,53.6,42.1,40.2,35.3,31.0,77,51,33,30.42,30.33,10,1,10,0.00
2013-10-14,60.5,50.6,39.3,46.4,37.6,32.2,86,62,38,30.36,29.85,28,10,28,0.18
2013-10-15,54.0,48.5,45.5,53.2,46.5,42.3,98,93,83,29.88,29.69,24,10,24,0.49
2013-10-16,47.1,44.8,39.0,44.4,42.3,37.0,97,91,81,29.96,29.88,8,1,8,0.02
2013-10-18,50.6,44.2,38.2,37.5,32.9,28.2,87,65,44,30.00,29.89,9,1,9,0.00
2013-10-19,50.4,39.4,32.7,43.2,33.7,27.4,94,80,63,29.89,29.72,23,4,23,0.07
2013-10-20,48.2,36.6,30.6,39.6,31.1,26.6,88,80,70,29.91,29.67,17,4,17,0.00
2013-10-21,44.0,36.3,31.7,34.2,28.7,25.4,87,74,53,30.01,29.91,15,2,17,0.00
2013-10-22,43.4,36.4,32.9,30.3,28.5,26.1,86,73,56,30.05,29.94,12,1,12,0.00
2013-10-23,40.1,35.7,30.0,34.1,28.3,24.3,88,75,63,30.11,30.03,12,2,12,0.00
2013-10-24,45.4,37.5,28.2,31.0,27.9,22.5,83,69,51,30.33,30.21,13,2,13,0.00
2013-10-25,54.7,44.5,25.1,36.8,32.0,22.8,92,63,47,30.36,29.92,30,11,30,0.00
2013-10-26,49.1,42.3,31.8,32.2,30.4,26.2,81,63,47,30.11,30.00,16,3,17,0.00
2013-10-27,62.4,43.4,26.5,37.5,31.1,22.7,87,65,38,30.08,29.81,20,4,20,0.00
2013-10-28,45.4,39.7,34.8,34.7,32.3,30.5,87,75,64,30.34,30.00,15,2,15,0.00
2013-10-29,56.3,45.1,37.0,45.9,37.8,30.7,93,76,62,30.33,30.02,26,7,26,0.00
2013-10-30,64.8,54.1,48.4,58.3,51.4,43.5,99,91,68,30.02,29.60,28,7,28,0.01
2013-10-31,56.0,42.6,38.6,55.3,41.0,36.2,98,94,89,29.61,29.40,17,2,17,0.00
2013-11-1,53.9,44.3,40.4,40.8,38.7,37.2,94,82,57,29.84,29.44,12,3,12,0.00
2013-11-2,50.6,41.9,35.8,38.9,35.6,31.0,93,79,55,30.11,29.84,12,2,12,0.00
2013-11-3,53.7,46.6,30.7,37.6,34.5,28.7,92,64,47,30.11,29.88,40,19,40,0.00
2013-11-4,50.3,45.0,37.7,45.4,39.8,35.2,93,82,66,30.15,29.86,27,8,27,0.00
2013-11-5,42.8,38.5,33.4,41.7,36.4,30.2,97,92,84,30.19,29.84,21,3,21,1.06
2013-11-6,41.7,35.3,29.7,34.3,28.8,23.6,97,78,51,30.22,29.88,24,5,24,0.00
2013-11-7,41.5,33.6,29.6,33.8,28.5,25.4,95,82,59,30.30,30.19,14,4,14,0.00
2013-11-8,48.9,38.3,24.4,41.7,30.7,21.4,90,75,50,30.24,29.73,42,9,42,0.00
2013-11-9,49.4,42.4,33.2,40.0,35.8,27.6,87,78,65,30.26,29.73,22,6,22,0.00
2013-11-10,40.6,36.2,31.9,32.7,29.9,27.4,84,78,68,30.38,30.11,11,4,12,0.00
2013-11-11,41.4,27.4,15.4,33.4,22.0,10.6,93,80,71,30.73,30.09,24,6,24,0.00
2013-11-12,24.0,17.0,10.0,14.7,11.3,7.2,89,78,65,30.86,30.57,13,3,13,0.00
2013-11-13,49.9,33.8,20.9,34.2,23.0,12.4,70,65,51,30.57,29.98,21,9,27,0.00
2013-11-14,48.4,39.7,33.3,38.2,31.3,25.2,89,72,65,29.98,29.82,18,6,18,0.00
2013-11-15,54.5,41.3,29.5,43.1,35.8,28.1,96,81,62,29.88,29.69,15,4,15,0.00
2013-11-16,60.4,47.7,36.0,57.5,44.3,33.1,100,88,64,29.69,29.24,25,10,25,0.00
2013-11-17,45.4,41.8,36.9,40.5,36.4,32.2,97,82,60,29.89,29.30,18,4,18,0.23
2013-11-18,39.9,33.6,25.9,33.8,28.0,23.1,93,80,64,30.28,29.88,16,3,18,0.00
2013-11-19,45.7,35.3,24.9,35.9,29.4,22.2,92,80,64,30.28,29.98,31,13,31,0.00
2013-11-20,41.1,38.4,36.5,36.9,33.4,28.5,98,83,63,30.01,29.89,24,11,24,0.00
2013-11-21,37.6,29.9,24.2,37.1,28.4,22.2,99,94,89,30.48,30.01,24,5,24,0.00
2013-11-22,29.0,21.3,13.5,22.1,15.5,10.7,92,79,53,30.65,30.47,23,5,23,0.00
2013-11-23,19.2,11.9,5.9,11.3,5.5,1.0,86,75,62,30.86,30.61,21,5,21,0.00
2013-11-24,25.1,15.9,5.3,13.9,8.0,0.8,83,71,55,30.78,30.21,27,10,27,0.00
2013-11-25,41.4,31.0,23.1,30.0,23.6,13.1,87,74,59,30.21,30.05,30,8,30,0.00
2013-11-26,33.1,23.1,14.0,24.7,12.9,5.4,76,65,50,30.37,30.11,26,7,26,0.00
2013-11-27,24.0,15.3,8.4,12.4,8.9,5.0,86,76,54,30.41,30.10,20,4,20,0.00
2013-11-28,30.9,20.2,12.0,18.7,13.6,9.3,90,76,59,30.54,30.08,15,2,15,0.00
2013-11-29,31.6,24.7,11.3,23.6,18.5,8.2,87,78,63,30.55,30.21,22,8,22,0.00
2013-11-30,46.1,34.4,27.3,32.1,27.3,23.3,86,76,58,30.20,30.04,16,4,16,0.00
2013-12-1,37.6,31.2,24.5,28.3,25.6,21.4,91,80,68,30.18,29.92,7,1,7,0.00
2013-12-2,40.9,33.3,26.5,36.8,30.9,24.2,96,91,83,29.92,29.57,25,9,25,0.00
2013-12-3,37.9,35.1,31.8,37.5,34.8,30.8,99,99,96,29.70,29.57,14,2,14,0.06
2013-12-4,36.7,31.2,15.2,36.6,30.4,10.9,100,97,84,29.84,29.46,25,5,25,0.02
2013-12-5,14.9,9.2,3.3,10.8,4.7,-1.8,85,81,79,30.42,29.84,26,8,26,0.00
2013-12-6,10.1,2.1,-2.5,3.2,-3.2,-7.4,82,78,72,30.73,30.41,13,3,13,0.00
2013-12-7,10.6,2.3,-5.5,3.5,-3.6,-9.8,82,76,63,30.83,30.63,10,2,10,0.00
2013-12-8,16.0,12.0,7.6,13.6,9.2,3.5,91,88,82,30.63,30.07,20,6,20,0.00
2013-12-9,13.9,1.1,-3.8,11.8,-3.3,-8.9,91,81,70,30.25,30.03,20,5,20,0.00
2013-12-10,17.7,11.8,5.5,14.4,7.1,0.4,91,81,71,30.30,29.94,26,7,27,0.00
2013-12-11,16.7,1.7,-4.5,14.7,-3.2,-9.2,92,79,70,30.65,30.30,18,4,18,0.00
2013-12-12,22.7,13.5,2.6,17.3,9.1,-3.0,92,82,76,30.48,30.17,22,5,22,0.00
2013-12-13,24.6,16.8,9.4,19.3,13.4,6.9,92,86,80,30.19,30.07,14,3,14,0.00
2013-12-14,18.2,14.8,6.9,14.6,11.3,1.5,92,86,79,30.21,30.13,15,3,15,0.00
2013-12-15,9.7,6.9,4.4,5.3,1.8,-1.1,87,79,72,30.19,30.12,12,2,12,0.00
2013-12-16,19.3,14.0,7.9,17.6,11.4,4.3,93,89,85,30.15,30.02,12,5,14,0.00
2013-12-17,31.2,25.3,15.1,27.2,20.1,11.5,93,81,69,30.17,30.03,22,6,22,0.00
2013-12-18,17.5,15.8,14.4,14.4,12.7,11.1,90,87,85,30.14,30.06,7,2,7,0.00
2013-12-22,14.8,9.1,-0.5,12.4,5.6,-4.4,90,85,83,30.33,30.00,13,4,13,0.00
2013-12-23,2.6,-3.1,-7.1,-3.8,-8.5,-12.9,83,77,72,30.61,30.33,18,4,18,0.00
2013-12-24,11.3,-0.3,-12.2,8.1,-5.7,-16.9,88,78,57,30.60,30.25,23,8,23,0.00
2013-12-25,30.2,20.6,11.4,27.8,17.7,8.3,93,88,78,30.26,30.15,16,5,16,0.00
2013-12-26,34.1,26.2,21.1,26.2,22.3,17.8,91,85,72,30.21,30.09,13,3,13,0.00
2013-12-27,42.0,30.2,15.6,35.2,26.2,13.4,95,85,73,30.22,30.01,23,6,23,0.01
2013-12-28,44.7,34.2,16.3,37.2,29.8,14.0,94,84,73,30.04,29.69,18,6,18,0.00
2013-12-29,16.2,2.5,-6.2,14.0,-2.4,-12.0,91,80,64,30.36,29.95,24,6,24,0.00
2013-12-30,4.4,0.9,-5.2,1.1,-3.1,-11.1,88,83,73,30.36,30.21,15,5,15,0.00
2013-12-31,4.1,1.9,-1.9,1.0,-1.4,-5.3,88,86,84,30.40,30.28,8,1,8,0.00
2014-1-1,3.7,0.7,-3.1,-2.2,-4.3,-7.0,85,79,72,30.47,30.35,11,3,11,0.00
2014-1-2,3.4,-2.2,-11.9,-2.3,-7.3,-15.8,85,78,71,30.56,30.42,11,2,11,0.00